Погода в Сельцо

Россия / Брянская область     53°22′26″N   34°06′21″E
темп.,
°C
ветер,
м/с
пор.,
м/с
влажн.,
%
обл.,
%
осадки,
мм/ч
давл.,
гПа
погр.,
м
14 апреля, ср
ср1400:00+11юв3981100 0.1 1018279
03:00+10ю378628 0.1 1018260
06:00+8ю359784 0.0 1019103
09:00+11ю348057 0.0 1019444
12:00+14ю3462100 0.1 10181168
15:00+15ююв235892 0.3 10171136
18:00+15ююв2465100 0.6 1016230
21:00+11сз1177100 0.6 101610
15 апреля, чт
чт1500:00+10ссв3482100 0.0 101570
03:00+9всв3489100 0.0 101477
06:00+8в3577100 0.0 1013102
09:00+12в4965100 0.0 1013442
12:00+16в465090 0.0 10121440
15:00+14ююв4765100 1.5 1012608
18:00+13вюв137518 1.3 1012213
21:00+10всв338599 2.1 101332
16 апреля, пт
пт1600:00+10в3483100 0.1 101363
03:00+8юв358874 0.1 101491
06:00+8всв358999 0.0 1014110
09:00+10в41186100 0.4 1015591
12:00+13вюв6867100 2.3 10161248
15:00+13в686795 3.3 10161111
18:00+13юв3565100 1.1 1016215
21:00+9вюв337975 1.2 101831
17 апреля, сб
сб1700:00+8вюв22835 0.0 101922
03:00+7св228668 0.0 101923
06:00+7св369588 0.0 1020131
09:00+9всв5887100 0.6 1020567
12:00+10св5888100 0.1 1020658
15:00+13св61176100 0.1 10201186
18:00+14всв81371100 1.0 10191071
21:00+11всв714766 1.1 1020598
18 апреля, вс
вс1800:00+9всв6137872 0.0 1021492
03:00+8всв61177100 0.0 1022474
06:00+7всв51075100 0.0 1023426
09:00+7всв5875100 0.0 1024482
12:00+10в5769100 0.0 1024836
15:00+10вюв5975100 0.0 1025707
18:00+9в4874100 0.0 1025847
21:00+8в258185 0.0 1026135